Regional Weather Roundup
Issued by NWS

Home | Current Version | Previous Version | Graphics & Text | Print | Product List | Glossary On
Versions: 1 2 3 4 5 6 7 8 9 10 11 12 13 14 15 16 17 18 19 20 21 22 23 24 25 26 27 28 29 30 31 32 33 34 35 36 37 38 39 40 41 42 43 44 45 46 47 48 49 50
652
ASUS43 KLSX 290207
RWRMO

WEATHER SUMMARY FOR MISSOURI
NATIONAL WEATHER SERVICE SPRINGFIELD MO
900 PM CDT WED SEP 28 2016

NOTE: "FAIR" INDICATES FEW OR NO CLOUDS BELOW 12,000 FEET WITH NO
       SIGNIFICANT WEATHER AND/OR OBSTRUCTIONS TO VISIBILITY.
       CURRENT SKY AND/OR WEATHER CONDITIONS ARE NOT AVAILABLE FOR
       CHILLICOTHE AND FARMINGTON.

MOZ001>031-035>038-043-044-053-054-290300-
...NORTHERN AND WESTERN MISSOURI...

CITY           SKY/WX    TMP DP  RH WIND       PRES   REMARKS
KANSAS CTY INT PTCLDY    57  46  66 N10       30.24R
KANSAS C DTWN  MOCLDY    60  47  61 NE8       30.24R
LEE`S SUMMIT   CLEAR     58  47  66 N12       30.24R
ST JOSEPH      PTCLDY    58  48  69 NE9       30.26R
CHILLICOTHE      N/A     59  49  69 N5        30.24R
KIRKSVILLE     CLEAR     56  49  77 NW9       30.21R

$$
MOZ066>068-077>081-088>096-101>105-290300-
...SOUTHWEST MISSOURI...

CITY           SKY/WX    TMP DP  RH WIND       PRES   REMARKS
SPRINGFIELD    CLEAR     58  47  66 N8        30.17R
JOPLIN         CLEAR     58  48  69 N5        30.19R
BRANSON        CLEAR     61  46  59 N6        30.16R

$$
MOZ032>034-039>042-045>050-055>058-069>072-290300-
...CENTRAL MISSOURI...

CITY           SKY/WX    TMP DP  RH WIND       PRES   REMARKS
COLUMBIA       CLEAR     54  48  80 NW7       30.19R
JEFFERSON CITY PTCLDY    58  48  69 NW3       30.18R
ROLLA          PTCLDY    55  47  74 N6        30.15R
SEDALIA        CLEAR     54  46  74 N7        30.21R
OSAGE BEACH    CLEAR     56  47  71 N5        30.19R

$$
MOZ051-052-059>065-290300-
...EAST CENTRAL MISSOURI...

CITY           SKY/WX    TMP DP  RH WIND       PRES   REMARKS
ST LOUIS INTL  MOCLDY    59  47  64 NW7       30.13R
SPIRIT OF STL  CLEAR     52  49  89 W7        30.13R
ST CHARLES     MOCLDY    58  50  75 W7        30.12R

$$
MOZ072>076-082>087-097>100-106>115-290300-
...SOUTH CENTRAL AND SOUTHEAST MISSOURI...

CITY           SKY/WX    TMP DP  RH WIND       PRES   REMARKS
CAPE GIRARDEAU CLEAR     58  46  64 N7        30.09R
FARMINGTON     PTCLDY    57  46  66 N6        30.13R
POPLAR BLUFF   CLEAR     58  50  75 N7        30.09R
WEST PLAINS    CLEAR     57  46  66 N6        30.15R

$$



USA.gov is the U.S. government's official web portal to all federal, state and local government web resources and services.